| time (UTC) | temp F | wind direction | speed MPH | gust MPH | rain 1hr in | rain 24hr in | rain mn in | humidity % | barometer mb |
| 20260510201003 | 47 | 346 | 6.0 | 17.0 | 0.00 | 0.00 | 0.00 | 47 | 1019.5 |
| 20260510200004 | 46 | 335 | 10.0 | 18.0 | 0.00 | 0.00 | 0.00 | 49 | 1019.5 |
| 20260510195003 | 47 | 4 | 8.0 | 20.0 | 0.00 | 0.00 | 0.00 | 49 | 1019.5 |
| 20260510194003 | 48 | 294 | 12.0 | 20.0 | 0.00 | 0.00 | 0.00 | 46 | 1019.5 |
| 20260510193004 | 47 | 342 | 7.0 | 13.0 | 0.00 | 0.00 | 0.00 | 48 | 1019.5 |
| 20260510192004 | 46 | 333 | 9.0 | 20.0 | 0.00 | 0.00 | 0.00 | 49 | 1019.5 |
| 20260510191004 | 48 | 320 | 9.0 | 17.0 | 0.00 | 0.00 | 0.00 | 48 | 1019.5 |
| 20260510190003 | 47 | 346 | 6.0 | 18.0 | 0.00 | 0.00 | 0.00 | 49 | 1019.5 |
| 20260510184003 | 47 | 1 | 7.0 | 15.0 | 0.00 | 0.00 | 0.00 | 51 | 1018.6 |
| 20260510183003 | 48 | 312 | 6.0 | 13.0 | 0.00 | 0.00 | 0.00 | 53 | 1018.6 |
| 20260510182004 | 47 | 272 | 9.0 | 17.0 | 0.00 | 0.00 | 0.00 | 52 | 1018.6 |
| 20260510181004 | 46 | 337 | 7.0 | 15.0 | 0.00 | 0.00 | 0.00 | 50 | 1018.6 |
| 20260510180004 | 46 | 332 | 10.0 | 20.0 | 0.00 | 0.00 | 0.00 | 49 | 1018.6 |
| 20260510175003 | 45 | 331 | 12.0 | 20.0 | 0.00 | 0.00 | 0.00 | 51 | 1018.6 |
| 20260510174003 | 46 | 285 | 8.0 | 20.0 | 0.00 | 0.00 | 0.00 | 51 | 1018.6 |
| 20260510173004 | 47 | 275 | 6.0 | 20.0 | 0.00 | 0.00 | 0.00 | 53 | 1018.6 |
| 20260510172003 | 46 | 300 | 7.0 | 22.0 | 0.00 | 0.00 | 0.00 | 53 | 1018.6 |
| 20260510171004 | 45 | 286 | 10.0 | 17.0 | 0.00 | 0.00 | 0.00 | 53 | 1018.6 |
| 20260510170004 | 47 | 297 | 10.0 | 16.0 | 0.00 | 0.00 | 0.00 | 51 | 1018.6 |
| 20260510165003 | 46 | 323 | 10.0 | 20.0 | 0.00 | 0.00 | 0.00 | 53 | 1017.3 |
| 20260510164003 | 45 | 285 | 6.0 | 16.0 | 0.00 | 0.00 | 0.00 | 53 | 1017.3 |
| 20260510163004 | 46 | 290 | 7.0 | 21.0 | 0.00 | 0.00 | 0.00 | 53 | 1017.3 |
| 20260510161003 | 46 | 263 | 12.0 | 16.0 | 0.00 | 0.00 | 0.00 | 52 | 1017.3 |
| 20260510160003 | 46 | 4 | 8.0 | 14.0 | 0.00 | 0.00 | 0.00 | 51 | 1017.3 |
| 20260510155003 | 45 | 249 | 7.0 | 20.0 | 0.00 | 0.00 | 0.00 | 55 | 1017.3 |
| 20260510154003 | 44 | 254 | 6.0 | 20.0 | 0.00 | 0.00 | 0.00 | 55 | 1017.3 |
| 20260510152004 | 44 | 279 | 11.0 | 18.0 | 0.00 | 0.00 | 0.00 | 57 | 1017.3 |
| 20260510151004 | 44 | 292 | 9.0 | 20.0 | 0.00 | 0.00 | 0.00 | 55 | 1017.3 |
| 20260510145003 | 43 | 286 | 10.0 | 22.0 | 0.00 | 0.00 | 0.00 | 55 | 1017.3 |
| 20260510144003 | 43 | 259 | 13.0 | 20.0 | 0.00 | 0.00 | 0.00 | 55 | 1016.9 |
| 20260510143004 | 43 | 296 | 9.0 | 20.0 | 0.00 | 0.00 | 0.00 | 57 | 1016.9 |
| 20260510142004 | 42 | 313 | 8.0 | 20.0 | 0.00 | 0.00 | 0.00 | 59 | 1016.9 |
| 20260510140003 | 41 | 305 | 10.0 | 16.0 | 0.00 | 0.00 | 0.00 | 59 | 1016.9 |
| 20260510135004 | 42 | 275 | 14.0 | 20.0 | 0.00 | 0.00 | 0.00 | 64 | 1016.9 |
| 20260510134003 | 41 | 287 | 9.0 | 17.0 | 0.00 | 0.00 | 0.00 | 66 | 1016.9 |
| 20260510133004 | 41 | 302 | 7.0 | 14.0 | 0.00 | 0.00 | 0.00 | 69 | 1016.9 |
| 20260510132004 | 41 | 261 | 5.0 | 14.0 | 0.00 | 0.00 | 0.00 | 70 | 1015.3 |
| 20260510131004 | 40 | 280 | 11.0 | 16.0 | 0.00 | 0.00 | 0.00 | 71 | 1015.3 |
| 20260510130003 | 40 | 274 | 6.0 | 15.0 | 0.00 | 0.00 | 0.00 | 72 | 1015.3 |
| 20260510125003 | 40 | 264 | 8.0 | 16.0 | 0.00 | 0.00 | 0.00 | 72 | 1015.3 |
| 20260510124004 | 39 | 290 | 12.0 | 18.0 | 0.00 | 0.00 | 0.00 | 72 | 1015.3 |
| 20260510122004 | 39 | 291 | 8.0 | 20.0 | 0.00 | 0.00 | 0.00 | 74 | 1015.3 |
| 20260510121004 | 39 | 273 | 10.0 | 16.0 | 0.00 | 0.00 | 0.00 | 74 | 1015.3 |
| 20260510120004 | 38 | 280 | 6.0 | 16.0 | 0.00 | 0.00 | 0.00 | 74 | 1015.3 |
| 20260510115004 | 38 | 273 | 9.0 | 20.0 | 0.00 | 0.00 | 0.00 | 75 | 1015.3 |
| 20260510114004 | 38 | 279 | 8.0 | 16.0 | 0.00 | 0.00 | 0.00 | 75 | 1015.3 |
| 20260510113003 | 38 | 266 | 8.0 | 13.0 | 0.00 | 0.00 | 0.00 | 75 | 1015.3 |
| 20260510112003 | 38 | 261 | 9.0 | 13.0 | 0.00 | 0.00 | 0.00 | 74 | 1015.3 |
| 20260510111004 | 38 | 281 | 7.0 | 12.0 | 0.00 | 0.00 | 0.00 | 74 | 1015.3 |
| 20260510110003 | 37 | 272 | 9.0 | 12.0 | 0.00 | 0.00 | 0.00 | 73 | 1015.0 |
| 20260510105004 | 37 | 262 | 7.0 | 12.0 | 0.00 | 0.00 | 0.00 | 74 | 1015.0 |
| 20260510104004 | 37 | 274 | 7.0 | 12.0 | 0.00 | 0.00 | 0.00 | 74 | 1015.0 |
| 20260510103003 | 37 | 274 | 7.0 | 12.0 | 0.00 | 0.00 | 0.00 | 74 | 1014.0 |
| 20260510102003 | 36 | 273 | 7.0 | 12.0 | 0.00 | 0.00 | 0.00 | 75 | 1014.0 |
| 20260510101004 | 36 | 263 | 6.0 | 10.0 | 0.00 | 0.00 | 0.00 | 76 | 1014.0 |
| 20260510100004 | 35 | 265 | 7.0 | 12.0 | 0.00 | 0.00 | 0.00 | 78 | 1014.0 |
| 20260510095004 | 34 | 264 | 7.0 | 12.0 | 0.00 | 0.00 | 0.00 | 77 | 1014.0 |
| 20260510094004 | 34 | 266 | 8.0 | 10.0 | 0.00 | 0.00 | 0.00 | 77 | 1014.0 |
| 20260510093003 | 34 | 254 | 6.0 | 9.0 | 0.00 | 0.00 | 0.00 | 77 | 1014.0 |
| 20260510092003 | 34 | 258 | 6.0 | 10.0 | 0.00 | 0.00 | 0.00 | 76 | 1014.0 |
| 20260510091004 | 34 | 251 | 5.0 | 7.0 | 0.00 | 0.00 | 0.00 | 75 | 1013.5 |
| 20260510090003 | 35 | 247 | 5.0 | 7.0 | 0.00 | 0.00 | 0.00 | 75 | 1013.5 |
| 20260510085004 | 35 | 259 | 5.0 | 7.0 | 0.00 | 0.00 | 0.00 | 74 | 1013.5 |
| 20260510084004 | 35 | 254 | 6.0 | 7.0 | 0.00 | 0.00 | 0.00 | 73 | 1013.5 |
| 20260510083003 | 36 | 254 | 6.0 | 7.0 | 0.00 | 0.00 | 0.00 | 73 | 1013.5 |
| 20260510080004 | 36 | 263 | 6.0 | 9.0 | 0.00 | 0.00 | 0.00 | 74 | 1013.4 |
| 20260510075003 | 36 | 261 | 6.0 | 8.0 | 0.00 | 0.00 | 0.00 | 76 | 1012.7 |
| 20260510074003 | 35 | 263 | 6.0 | 9.0 | 0.00 | 0.00 | 0.00 | 77 | 1012.7 |
| 20260510073004 | 34 | 275 | 5.0 | 12.0 | 0.00 | 0.00 | 0.00 | 78 | 1012.7 |
| 20260510071003 | 33 | 264 | 6.0 | 10.0 | 0.00 | 0.00 | 0.00 | 80 | 1012.7 |
| 20260510070004 | 33 | 274 | 6.0 | 9.0 | 0.00 | 0.00 | 0.00 | 79 | 1012.7 |
| 20260510065004 | 33 | 261 | 5.0 | 6.0 | 0.00 | 0.00 | 0.00 | 79 | 1012.7 |
| 20260510064004 | 34 | 270 | 5.0 | 7.0 | 0.00 | 0.00 | 0.00 | 78 | 1012.7 |
| 20260510063004 | 34 | 264 | 5.0 | 7.0 | 0.00 | 0.00 | 0.00 | 77 | 1012.7 |
| 20260510062004 | 34 | 268 | 5.0 | 6.0 | 0.00 | 0.00 | 0.00 | 76 | 1012.7 |
| 20260510061004 | 35 | 263 | 3.0 | 7.0 | 0.00 | 0.00 | 0.00 | 74 | 1012.7 |
| 20260510060004 | 36 | 286 | 5.0 | 7.0 | 0.00 | 0.00 | 0.00 | 73 | 1012.7 |
| 20260510055004 | 36 | 288 | 5.0 | 7.0 | 0.00 | 0.00 | 0.00 | 74 | 1012.7 |
| 20260510053004 | 33 | 281 | 4.0 | 9.0 | 0.00 | 0.00 | 0.00 | 77 | 1012.7 |
| 20260510052004 | 33 | 268 | 5.0 | 9.0 | 0.00 | 0.00 | 0.00 | 76 | 1012.7 |
| 20260510051004 | 34 | 266 | 6.0 | 9.0 | 0.00 | 0.00 | 0.00 | 75 | 1012.7 |
| 20260510050004 | 34 | 270 | 6.0 | 10.0 | 0.00 | 0.00 | 0.00 | 75 | 1012.7 |
| 20260510045004 | 35 | 272 | 5.0 | 8.0 | 0.00 | 0.00 | 0.00 | 73 | 1012.7 |
| 20260510044003 | 35 | 268 | 6.0 | 7.0 | 0.00 | 0.00 | 0.00 | 73 | 1012.7 |
| 20260510041004 | 37 | 266 | 5.0 | 6.0 | 0.00 | 0.00 | 0.00 | 69 | 1012.4 |
| 20260510035004 | 38 | 272 | 4.0 | 6.0 | 0.00 | 0.00 | 0.00 | 64 | 1012.4 |
| 20260510034003 | 40 | 296 | 3.0 | 7.0 | 0.00 | 0.00 | 0.00 | 62 | 1011.5 |
| 20260510033004 | 40 | 275 | 5.0 | 7.0 | 0.00 | 0.00 | 0.00 | 60 | 1011.5 |
| 20260510032003 | 41 | 282 | 3.0 | 6.0 | 0.00 | 0.00 | 0.00 | 59 | 1011.5 |
| 20260510031003 | 43 | 273 | 3.0 | 6.0 | 0.00 | 0.00 | 0.00 | 55 | 1011.5 |
| 20260510030004 | 44 | 277 | 3.0 | 5.0 | 0.00 | 0.00 | 0.00 | 53 | 1011.5 |
| 20260510025003 | 44 | 293 | 3.0 | 7.0 | 0.00 | 0.00 | 0.00 | 51 | 1011.5 |
| 20260510023003 | 45 | 296 | 3.0 | 10.0 | 0.00 | 0.00 | 0.00 | 51 | 1011.5 |
| 20260510022004 | 45 | 311 | 3.0 | 9.0 | 0.00 | 0.00 | 0.00 | 52 | 1011.5 |
| 20260510021004 | 45 | 337 | 5.0 | 10.0 | 0.00 | 0.00 | 0.00 | 50 | 1011.3 |
| 20260510020004 | 45 | 332 | 4.0 | 7.0 | 0.00 | 0.00 | 0.00 | 51 | 1009.6 |
| 20260510015004 | 45 | 328 | 2.0 | 8.0 | 0.00 | 0.00 | 0.00 | 50 | 1009.6 |
| 20260510014004 | 46 | 331 | 2.0 | 9.0 | 0.00 | 0.00 | 0.00 | 49 | 1009.6 |
| 20260510013004 | 46 | 325 | 4.0 | 12.0 | 0.00 | 0.00 | 0.00 | 47 | 1009.6 |
| 20260510012003 | 47 | 353 | 8.0 | 12.0 | 0.00 | 0.00 | 0.00 | 46 | 1009.6 |
| 20260510010004 | 48 | 333 | 5.0 | 15.0 | 0.00 | 0.00 | 0.00 | 45 | 1009.6 |
| 20260510004003 | 49 | 349 | 8.0 | 16.0 | 0.00 | 0.00 | 0.00 | 42 | 1009.6 |
| 20260510003004 | 49 | 345 | 10.0 | 17.0 | 0.00 | 0.00 | 0.00 | 42 | 1008.8 |
| 20260510000004 | 50 | 334 | 7.0 | 15.0 | 0.00 | 0.00 | 0.00 | 41 | 1008.8 |
| 20260509235003 | 50 | 308 | 6.0 | 12.0 | 0.00 | 0.00 | 0.00 | 42 | 1008.8 |
| 20260509234003 | 50 | 307 | 5.0 | 12.0 | 0.00 | 0.00 | 0.00 | 43 | 1008.8 |
| 20260509233004 | 50 | 323 | 6.0 | 16.0 | 0.00 | 0.00 | 0.00 | 41 | 1008.8 |
| 20260509232004 | 50 | 304 | 3.0 | 12.0 | 0.00 | 0.00 | 0.00 | 44 | 1007.8 |
| 20260509230003 | 50 | 312 | 10.0 | 18.0 | 0.00 | 0.00 | 0.00 | 41 | 1007.8 |
| 20260509225004 | 50 | 268 | 8.0 | 15.0 | 0.00 | 0.00 | 0.00 | 41 | 1007.8 |
| 20260509224004 | 50 | 303 | 10.0 | 16.0 | 0.00 | 0.00 | 0.00 | 40 | 1007.8 |
| 20260509222004 | 51 | 278 | 10.0 | 16.0 | 0.00 | 0.00 | 0.00 | 40 | 1007.8 |
| 20260509221004 | 50 | 339 | 8.0 | 20.0 | 0.00 | 0.00 | 0.00 | 39 | 1007.8 |
| 20260509220003 | 50 | 304 | 5.0 | 17.0 | 0.00 | 0.00 | 0.00 | 40 | 1007.8 |
| 20260509214004 | 51 | 301 | 13.0 | 22.0 | 0.00 | 0.00 | 0.00 | 41 | 1007.8 |
| 20260509212004 | 50 | 337 | 9.0 | 20.0 | 0.00 | 0.00 | 0.00 | 41 | 1007.8 |
| 20260509211004 | 51 | 330 | 12.0 | 22.0 | 0.00 | 0.00 | 0.00 | 38 | 1007.8 |
| 20260509205004 | 51 | 295 | 10.0 | 20.0 | 0.00 | 0.00 | 0.00 | 40 | 1006.8 |
| 20260509204003 | 51 | 288 | 12.0 | 24.0 | 0.00 | 0.00 | 0.00 | 41 | 1006.8 |
| 20260509203003 | 52 | 349 | 12.0 | 21.0 | 0.00 | 0.00 | 0.00 | 38 | 1006.8 |
| 20260509202004 | 52 | 337 | 10.0 | 20.0 | 0.00 | 0.00 | 0.00 | 40 | 1006.8 |